Weather History for KMKE - March, 2013

Change the Weather History Date:

Monday, March 25, 2013

  Actual Average Record
Temperature  
Mean Temperature 33 °F 38 °F  
Max Temperature 35 °F 46 °F 79 °F (2007)
Min Temperature 30 °F 30 °F 0 °F (1960)
Degree Days  
Heating Degree Days 32 27  
Month to date heating degree days 922 775  
Since 1 July heating degree days 5647 5755  
Cooling Degree Days 0 0  
Month to date cooling degree days 0 0  
Year to date cooling degree days 0 0  
Moisture  
Dew Point 25 °F    
Average Humidity 73    
Maximum Humidity 85    
Minimum Humidity 61    
Precipitation  
Precipitation T in 0.09 in 1.28 in (1920)
Month to date precipitation 1.62 1.72  
Year to date precipitation 7.82 5.13  
Snow  
Snow T in 0.20 in 5.20 in (1933)
Month to date snowfall 7.4 6.2  
Since 1 July snowfall 44.6 44.0  
Snow Depth T in    
Sea Level Pressure  
Sea Level Pressure 29.90 in    
Wind  
Wind Speed 13 mph (North)    
Max Wind Speed 24 mph    
Max Gust Speed 31 mph    
Visibility 10 miles    
Events Snow    
T = Trace of Precipitation, MM = Missing Value Source: NWS Daily Summary

Daily Weather History Graph

Daily Weather History Graph

Search for Another Location

Airport or City:

Trip Planner

Search our weather history database for the weather conditions in past years. The results will help you decide how hot, cold, wet, or windy it might be!

Date:

Astronomy

Mar. 25, 2013 Rise Set
Actual Time 6:45 AM CDT 7:10 PM CDT
Civil Twilight 6:17 AM CDT 7:38 PM CDT
Nautical Twilight 5:43 AM CDT 8:12 PM CDT
Astronomical Twilight 5:09 AM CDT 8:46 PM CDT
Moon 5:40 PM CDT (3/25) 5:30 AM CDT (3/25)
Length of Visible Light 13h 21m
Length of Day
12h 24m
Waxing Gibbous, 96% of the Moon is Illuminated
Mar 25
Waxing Gibbous
Mar 27
Full
Apr 2
Last Quarter
Apr 10
New
Apr 18
First Quarter

Hourly Weather History & Observations

Time (CDT) Temp. Windchill Dew Point Humidity Pressure Visibility Wind Dir Wind Speed Gust Speed Precip Events Conditions
12:52 AM 30.9 °F 18.7 °F 23.0 °F 72% 29.78 in 10.0 mi North 19.6 mph 31.1 mph N/A   Overcast
1:52 AM 30.0 °F 18.3 °F 23.0 °F 75% 29.78 in 10.0 mi North 17.3 mph 25.3 mph N/A   Overcast
2:52 AM 30.0 °F 17.9 °F 24.1 °F 79% 29.78 in 10.0 mi North 18.4 mph 27.6 mph N/A   Overcast
3:52 AM 30.0 °F 18.7 °F 25.0 °F 82% 29.78 in 10.0 mi North 16.1 mph 24.2 mph N/A   Overcast
4:52 AM 30.0 °F 17.9 °F 25.0 °F 82% 29.78 in 10.0 mi North 18.4 mph 25.3 mph N/A   Overcast
5:17 AM 30.2 °F 19.8 °F 24.8 °F 80% 29.75 in 10.0 mi North 13.8 mph - N/A   Overcast
5:52 AM 30.0 °F 19.5 °F 26.1 °F 85% 29.79 in 10.0 mi North 13.8 mph 20.7 mph N/A   Overcast
6:52 AM 30.9 °F 20.7 °F 26.1 °F 82% 29.81 in 10.0 mi North 13.8 mph - N/A   Mostly Cloudy
7:03 AM 30.2 °F 20.2 °F 26.6 °F 86% 29.78 in 10.0 mi North 12.7 mph 20.7 mph N/A   Mostly Cloudy
7:52 AM 30.9 °F 22.2 °F 26.1 °F 82% 29.83 in 10.0 mi North 10.4 mph 20.7 mph N/A   Overcast
8:15 AM 32.0 °F 22.1 °F 26.6 °F 80% 29.81 in 10.0 mi North 13.8 mph 20.7 mph N/A   Overcast
8:33 AM 32.0 °F 22.5 °F 26.6 °F 80% 29.82 in 10.0 mi North 12.7 mph - N/A   Overcast
8:52 AM 33.1 °F 23.4 °F 26.1 °F 75% 29.84 in 10.0 mi North 13.8 mph - N/A   Overcast
9:52 AM 33.1 °F 23.4 °F 26.1 °F 75% 29.87 in 10.0 mi North 13.8 mph 20.7 mph N/A   Overcast
10:52 AM 34.0 °F 23.8 °F 27.0 °F 75% 29.89 in 9.0 mi North 16.1 mph 21.9 mph 0.00 in   Overcast
11:52 AM 34.0 °F 25.5 °F 26.1 °F 73% 29.91 in 10.0 mi North 11.5 mph 23.0 mph N/A   Overcast
12:52 PM 34.0 °F 23.8 °F 26.1 °F 73% 29.91 in 10.0 mi North 16.1 mph 26.5 mph N/A   Overcast
1:06 PM 33.8 °F 22.2 °F 24.8 °F 70% 29.89 in 10.0 mi NNE 20.7 mph 27.6 mph N/A   Overcast
1:52 PM 35.1 °F 26.4 °F 25.0 °F 67% 29.92 in 10.0 mi North 12.7 mph 27.6 mph N/A   Overcast
2:52 PM 34.0 °F 23.8 °F 24.1 °F 67% 29.94 in 10.0 mi NNE 16.1 mph 25.3 mph N/A   Overcast
3:52 PM 33.1 °F 21.5 °F 23.0 °F 66% 29.96 in 10.0 mi North 19.6 mph 25.3 mph N/A   Overcast
4:47 PM 33.8 °F 23.9 °F 23.0 °F 65% 29.95 in 10.0 mi North 15.0 mph 23.0 mph N/A   Overcast
4:52 PM 33.1 °F 25.5 °F 23.0 °F 66% 29.99 in 10.0 mi North 9.2 mph 23.0 mph N/A   Overcast
5:52 PM 34.0 °F 24.6 °F 24.1 °F 67% 30.00 in 10.0 mi NNE 13.8 mph 20.7 mph N/A   Overcast
6:52 PM 34.0 °F 25.5 °F 24.1 °F 67% 30.03 in 10.0 mi NNW 11.5 mph - N/A   Overcast
7:52 PM 34.0 °F 26.6 °F 24.1 °F 67% 30.05 in 10.0 mi NNW 9.2 mph - N/A   Overcast
8:52 PM 34.0 °F 26.0 °F 21.9 °F 61% 30.07 in 10.0 mi NNW 10.4 mph - N/A   Overcast
9:52 PM 34.0 °F 28.0 °F 23.0 °F 64% 30.08 in 10.0 mi NW 6.9 mph - 0.00 in Snow Light Snow
10:52 PM 33.1 °F 27.7 °F 24.1 °F 70% 30.09 in 10.0 mi NNW 5.8 mph - 0.00 in   Mostly Cloudy
11:52 PM 33.1 °F 24.9 °F 24.1 °F 70% 30.09 in 10.0 mi North 10.4 mph - 0.00 in Snow Light Snow